STARLINK-3823, 52336

Orbit data source: Space-Track

STARLINK-3823, 52336 is a payload satellite owned by SpaceX/Seattle (US) in LEO that was launched on Fri, 29 Apr 2022 UTC via an FALCON 9 launch vehicle from the Air Force Eastern Test Range (AFETR). Payload-class satellites include a variety of spacecraft equipped with specific instruments for various scientific and technological missions. These include communications satellites like Starlink; space stations such as the ISS; scientific satellites like the Hubble; Earth observation satellites from companies like Planet Labs, Umbra, and HawkEye 360; GPS; miniature CubeSats for education and research; and military/defense satellites.

Loading next visibility...
Identifier
52336, 2022-045F
Orbit
LEO
Country
Flag of USUS
Related business
Manufacturer
SpaceX/Seattle
Mission
Operational Commercial Communications
Bus & Motor
STARLINK, Unknown motor
Mass
297 kg wet, ~275 kg dry
Launch date (UTC)
2022-04-29 (4 years ago)
Launch vehicle
FALCON 9
Launch site
Air Force Eastern Test Range (AFETR)
Object type
Payload
Rocket body
Debris
Shape & HBR
Box + 1 Pan, 10.1 m
Radar Cross Section
11.087 m², Large (>1 m²)

Expand to show TLE details & history
Last TLE update: 19 hours ago

TLE from 19 hours ago
0 STARLINK-3823
1 52336U 22045F   25348.89333444  .00000269  00000-0  34983-4 0  9990
2 52336  53.2165 229.5835 0001416  87.8467 272.2688 15.08831847202845
Epoch: 2025-12-14T21:26Z
TLE epoch observation values (Epoch: 2025-12-14T21:26:24.095Z)
Latitude
0.00003°
Longitude
-175.81659°
Altitude
540.627 km
Speed
7.593 km/s
True Right ascension
15h 18m 20s
True Declination
0° 00' 00"
Sunlit
Object was in daylight at epoch
Visualization orbit readout
Latitude
Unknown
Longitude
Unknown
Altitude
Unknown
Speed
Unknown
Apparent Right ascension
Unknown
Apparent Declination
Unknown
Sunlit
N/A
Visualization observer readout
Local Sidereal Time
15:08:55
Azimuth
Unknown
Elevation
Unknown
Doppler factor
Unknown
Orbital elements
Apogee altitude
540.993 km
Perigee altitude
539.034 km
Semi-major axis
6,918.15 km
Eccentricity
0.00014
Inclination
53.2165°
RAAN
229.5835°
Arg. of periapsis
87.8467°
True anomaly
272.25259°
Mean anomaly
272.2688°
Eccentric anomaly
272.26069°
Mean motion
3.77188 °/min
Orbital period
95.44 mins
BSTAR
0.000034983
Loading maneuver chart data...
Computing Atmospheric mass density...
Loading historical data...
Loading historical data...
Loading historical data...
Loading historical data...
Loading historical data...
Loading historical data...
Loading historical data...

Documentation

Showing up to 5 results
|